Regional Weather Roundup
Issued by NWS Sioux Falls, SD

Home | Current Version | Previous Version | Text Only | Print | Product List | Glossary Off
Versions: 1 2 3 4 5 6 7 8 9 10 11 12 13 14 15 16 17 18 19 20 21 22 23 24 25 26 27 28 29 30 31 32 33 34 35 36 37 38 39 40 41 42 43 44 45 46 47 48 49 50

000
ASUS43 KFSD 280002
RWRFSD

WEATHER ROUNDUP FOR SE SOUTH DAKOTA/SW MINNESOTA/NW IOWA
NATIONAL WEATHER SERVICE SIOUX FALLS SD
700 PM CDT MON APR 27 2015

NOTE: "FAIR" INDICATES FEW OR NO CLOUDS BELOW 12,000 FEET WITH NO
SIGNIFICANT WEATHER AND OR OBSTRUCTIONS TO VISIBILITY.


SDZ038>040-050-052>070-280100-
SOUTHEAST SOUTH DAKOTA

CITY           SKY/WX    TMP DP  RH WIND       PRES   REMARKS
BROOKINGS      SUNNY     66  25  20 N9        30.16S
CHAMBERLAIN    NOT AVBL
HURON          SUNNY     70  19  14 E7        30.15S
6HR MIN TEMP:  67; 6HR MAX TEMP:  72;

MADISON        FAIR      66  18  15 E7        30.16S
MITCHELL       MOSUNNY   70  23  17 NE3       30.16S
6HR MIN TEMP:  66; 6HR MAX TEMP:  71;

SIOUX FALLS    PTSUNNY   66  28  24 N7        30.15S
6HR MIN TEMP:  65; 6HR MAX TEMP:  70;

WINNER         FAIR      67  39  35 N21       30.18R
YANKTON        MOSUNNY   70  27  19 N3        30.14S
$$

MNZ071-072-080-081-089-090-097-098-280100-
SOUTHWEST MINNESOTA

CITY           SKY/WX    TMP DP  RH WIND       PRES   REMARKS
FAIRMONT       SUNNY     68  23  18 NE8       30.13F
JACKSON        SUNNY     68  14  12 NE9       30.15S
LUVERNE        SUNNY     68  21  17 NE5       30.15S
MARSHALL       MOSUNNY   68  21  17 NW6       30.15S
6HR MIN TEMP:  63; 6HR MAX TEMP:  70;

MONTEVIDEO     SUNNY     68  23  18 NW6       30.16F
REDWOOD FALLS  SUNNY     69  20  15 N7        30.14S
TRACY          SUNNY     68  21  16 N7        30.16S
WORTHINGTON    SUNNY     64  21  19 N7        30.16S
$$

IAZ001>003-012>014-020>022-031-032-NEZ013-014-SDZ071-280100-
NORTHWEST IOWA

CITY           SKY/WX    TMP DP  RH WIND       PRES   REMARKS
DENISON        SUNNY     64  30  27 NE9G16    30.10F
ESTHERVILLE    SUNNY     65  30  27 NE10      30.14F
LE MARS        SUNNY     70  25  18 NE12      30.14S
SIOUX CITY     SUNNY     68  26  20 NE6       30.13S
6HR MIN TEMP:  66; 6HR MAX TEMP:  72;

SPENCER        SUNNY     67  28  23 NE12      30.14F
6HR MIN TEMP:  65; 6HR MAX TEMP:  69;

$$

ABBREVIATIONS USED IN REMARKS
   TC - TEMPERATURE IN CELSIUS
  WCI - WIND CHILL INDEX
   HX - HEAT INDEX
  VSB - VISIBILITY




USA.gov is the U.S. government's official web portal to all federal, state and local government web resources and services.